Location: Newark
(42.7133°N, 87.7910°W)
Time: 19:03:58
(UTC+00:00)

Vanguard 1 - Pass Details

Date: 23 September 2019
Orbit: 653 x 3830 km, 34.2° (Epoch: 20 October)

Event Time Altitude Azimuth Distance (km) Brightness Sun altitude
Rises 05:16:36 0° 209° (SSW) 7,033 - -46.8°
Reaches altitude 10° 05:21:32 10° 201° (SSW) 6,346 - -47.0°
Maximum altitude 05:40:19 37° 143° (SE) 4,985 - -47.3°
Exits shadow 05:47:16 32° 114° (ESE) 5,203 13.4 -47.3°
Drops below altitude 10° 05:59:03 10° 85° (E) 6,392 14.2 -47.1°
Sets 06:03:56 0° 78° (ENE) 7,096 14.6 -47.0°
